This is the latest recevied weather packets stored in our database for station/object W1GK. If no packets are shown the sender has not sent any weather packets the latest 10 day(s).
| Time | Temp. | Humidity | Pressure | Rain* | Wind** | Luminosity | Snow |
|---|---|---|---|---|---|---|---|
| 1777627196 | 19.44° C | 19% | 1012.6 hPa | 0 mm | - | 0 W/m² | - |
| 1777626595 | 20° C | 19% | 1012.7 hPa | 0 mm | - | 0 W/m² | - |
| 1777625995 | 20° C | 18% | 1012.7 hPa | 0 mm | - | 0 W/m² | - |
| 1777625396 | 20.56° C | 18% | 1012.7 hPa | 0 mm | - | 0 W/m² | - |
| 1777624798 | 20.56° C | 18% | 1012.7 hPa | 0 mm | - | 0 W/m² | - |
| 1777624197 | 20.56° C | 18% | 1012.7 hPa | 0 mm | - | 0 W/m² | - |
| 1777623595 | 20.56° C | 18% | 1012.7 hPa | 0 mm | - | 0 W/m² | - |
| 1777622995 | 21.11° C | 17% | 1012.7 hPa | 0 mm | - | 0 W/m² | - |
| 1777622398 | 21.11° C | 18% | 1012.7 hPa | 0 mm | - | 0 W/m² | - |
| 1777621799 | 20.56° C | 18% | 1012.6 hPa | 0 mm | - | 0 W/m² | - |
| 1777621199 | 20.56° C | 17% | 1012.6 hPa | 0 mm | - | 0 W/m² | - |
| 1777620598 | 21.11° C | 17% | 1012.5 hPa | 0 mm | - | 0 W/m² | - |
| 1777620000 | 21.11° C | 17% | 1012.4 hPa | 0 mm | - | 0 W/m² | - |
| 1777619398 | 21.11° C | 17% | 1012.3 hPa | 0 mm | - | 0 W/m² | - |
| 1777618799 | 21.67° C | 16% | 1012.2 hPa | 0 mm | - | 0 W/m² | - |
| 1777618198 | 21.67° C | 16% | 1012.2 hPa | 0 mm | - | 0 W/m² | - |
| 1777617599 | 22.22° C | 16% | 1012.1 hPa | 0 mm | - | 0 W/m² | - |
| 1777616998 | 22.22° C | 16% | 1011.9 hPa | 0 mm | - | 0 W/m² | - |
| 1777616399 | 22.22° C | 15% | 1011.9 hPa | 0 mm | - | 0 W/m² | - |
| 1777615798 | 22.78° C | 15% | 1011.8 hPa | 0 mm | - | 0 W/m² | - |
| 1777615198 | 22.78° C | 15% | 1011.6 hPa | 0 mm | - | 0 W/m² | - |
| 1777613999 | 22.22° C | 15% | 1011.4 hPa | 0 mm | - | 0 W/m² | - |
| 1777613399 | 22.78° C | 15% | 1011.2 hPa | 0 mm | - | 0 W/m² | - |
| 1777612798 | 22.78° C | 15% | 1011.2 hPa | 0 mm | - | 0 W/m² | - |
| 1777612199 | 22.22° C | 15% | 1011.2 hPa | 0 mm | - | 0 W/m² | - |
* Rain latest hour (hover to see other rain measurements)
** Current wind speed in m/s (hover to see current wind gust speed)